GW7381 Weather Reports


time (UTC)temp
C
wind
direction
speed
KPH
gust
KPH
rain 1hr
cm
rain 24hr
cm
rain mn
cm
humidity
%
barometer
mb
20260505152017 2 0 0.0 6.4 0.03 0.76 0.41 91 1016.0
20260505151535 2 259 1.6 6.4 0.03 0.76 0.41 91 1016.0
20260505151018 2 263 1.6 6.4 0.03 0.76 0.41 91 1015.9
20260505150518 2 0 1.6 6.4 0.03 0.76 0.41 91 1015.9
20260505140521 1 215 1.6 6.4 0.08 0.74 0.38 90 1016.2
20260505125021 2 240 4.8 12.9 0.05 0.66 0.30 90 1015.2
20260505124546 2 294 3.2 11.3 0.05 0.66 0.30 90 1015.1
20260505124021 2 0 3.2 12.9 0.08 0.66 0.30 89 1015.1
20260505123518 2 255 3.2 12.9 0.08 0.66 0.30 89 1015.0
20260505123038 2 271 1.6 11.3 0.10 0.66 0.30 89 1015.0
20260505122518 2 215 1.6 12.9 0.10 0.64 0.28 89 1015.0
20260505122020 2 269 4.8 12.9 0.13 0.64 0.28 89 1015.0
20260505121536 2 211 4.8 11.3 0.15 0.64 0.28 89 1014.9
20260505121019 2 164 4.8 11.3 0.15 0.64 0.28 89 1015.0
20260505120517 2 0 3.2 11.3 0.15 0.64 0.28 89 1014.9
20260505120047 2 283 3.2 11.3 0.13 0.61 0.25 89 1014.8
20260505115516 2 252 1.6 11.3 0.15 0.61 0.25 89 1014.7
20260505115017 3 196 0.0 9.7 0.15 0.61 0.25 89 1014.7
20260505114534 3 128 3.2 9.7 0.18 0.61 0.25 89 1014.6
20260505114016 3 285 3.2 12.9 0.15 0.58 0.23 89 1014.6
20260505113519 3 318 3.2 14.5 0.15 0.58 0.23 89 1014.6
20260505113035 3 280 4.8 16.1 0.13 0.56 0.20 89 1014.6
20260505112518 3 302 4.8 16.1 0.10 0.53 0.18 89 1014.6
20260505112019 3 259 3.2 16.1 0.10 0.51 0.15 89 1014.4
20260505111535 3 282 3.2 12.9 0.08 0.48 0.13 89 1014.3
20260505111022 3 219 3.2 12.9 0.08 0.48 0.13 89 1014.1
20260505110517 3 224 3.2 11.3 0.08 0.48 0.13 89 1014.2
20260505102017 5 256 4.8 14.5 0.03 0.41 0.05 89 1013.2
20260505101536 5 273 4.8 16.1 0.03 0.41 0.05 89 1013.1
20260505101019 5 296 4.8 20.9 0.03 0.41 0.05 89 1013.1
20260505100519 5 258 6.4 20.9 0.03 0.41 0.05 89 1013.0
20260505100036 5 300 4.8 20.9 0.00 0.38 0.03 89 1012.9
20260505095518 5 284 4.8 17.7 0.00 0.38 0.03 90 1012.7
20260505095018 5 321 4.8 17.7 0.00 0.38 0.03 89 1012.6
20260505094535 5 180 4.8 17.7 0.00 0.38 0.03 89 1012.6
20260505094017 5 221 6.4 17.7 0.03 0.38 0.03 89 1012.6
20260505093518 5 213 6.4 17.7 0.03 0.38 0.03 89 1012.5
20260505093034 5 232 4.8 17.7 0.03 0.38 0.03 89 1012.6
20260505092522 5 221 4.8 17.7 0.03 0.38 0.03 89 1012.6
20260505092018 6 290 4.8 14.5 0.03 0.38 0.03 89 1012.6
20260505091531 6 259 6.4 17.7 0.03 0.38 0.03 88 1012.5
20260505091018 6 227 8.0 17.7 0.03 0.38 0.03 88 1012.4
20260505090517 6 261 6.4 17.7 0.03 0.38 0.03 88 1012.5
20260505090037 6 211 3.2 16.1 0.03 0.38 0.03 88 1012.4
20260505085518 6 225 3.2 14.5 0.03 0.38 0.03 88 1012.3
20260505085017 6 0 4.8 14.5 0.03 0.38 0.03 88 1012.3
20260505084544 6 180 4.8 16.1 0.00 0.36 0.00 87 1012.3
20260505084017 7 236 6.4 16.1 0.00 0.36 0.00 87 1012.3
20260505083517 7 242 6.4 16.1 0.00 0.36 0.00 87 1012.4
20260505083044 8 220 1.6 9.7 0.00 0.36 0.00 89 1012.3
20260505082517 8 250 0.0 4.8 0.00 0.36 0.00 89 1012.5
20260505082018 8 265 1.6 6.4 0.00 0.36 0.00 89 1012.4
20260505081548 8 0 0.0 6.4 0.00 0.36 0.00 89 1012.4
20260505081019 8 0 0.0 3.2 0.00 0.36 0.00 89 1012.4
20260505080518 8 246 0.0 3.2 0.00 0.36 0.00 89 1012.6
20260505080034 8 0 0.0 0.0 0.00 0.36 0.00 88 1012.4
20260505075517 8 0 0.0 0.0 0.00 0.36 0.00 88 1012.2
20260505075017 8 0 0.0 0.0 0.00 0.36 0.00 88 1012.3
20260505074532 8 0 0.0 0.0 0.00 0.36 0.00 88 1012.2
20260505074017 8 0 0.0 1.6 0.00 0.36 0.00 88 1012.2
20260505073517 8 0 0.0 1.6 0.00 0.36 0.00 88 1012.3
20260505073036 8 0 0.0 1.6 0.00 0.36 0.00 88 1012.4
20260505072517 8 0 0.0 3.2 0.00 0.36 0.00 88 1012.3
20260505072021 8 0 0.0 3.2 0.00 0.36 0.00 88 1012.4
20260505071536 8 0 0.0 3.2 0.00 0.36 0.00 88 1012.4
20260505071018 8 0 0.0 3.2 0.00 0.36 0.00 88 1012.6
20260505070522 8 0 0.0 1.6 0.00 0.36 0.00 88 1012.6
20260505070043 8 0 0.0 1.6 0.00 0.36 0.00 88 1012.5
20260505065518 8 0 0.0 1.6 0.00 0.36 0.00 88 1012.5
20260505065018 8 0 0.0 3.2 0.00 0.36 0.00 88 1012.6
20260505064535 8 0 0.0 3.2 0.00 0.36 0.00 88 1012.5
20260505064018 8 0 0.0 3.2 0.00 0.36 0.00 88 1012.5
20260505063518 8 0 0.0 1.6 0.00 0.36 0.00 88 1012.6
20260505063034 8 0 0.0 1.6 0.00 0.36 0.00 87 1012.5
20260505062518 8 0 0.0 3.2 0.00 0.36 0.00 87 1012.6
20260505062036 8 0 0.0 3.2 0.00 0.36 0.00 87 1012.6
20260505061535 8 0 0.0 1.6 0.00 0.36 0.00 87 1012.6
20260505061019 8 0 0.0 3.2 0.00 0.36 0.00 87 1012.8
20260505060519 8 0 0.0 3.2 0.00 0.36 0.00 87 1012.8
20260505060038 8 0 0.0 3.2 0.00 0.36 0.00 87 1012.6
20260505055519 8 0 0.0 3.2 0.00 0.36 0.36 87 1012.7
20260505055016 8 0 0.0 3.2 0.00 0.36 0.36 87 1012.9
20260505054536 8 155 0.0 3.2 0.03 0.36 0.36 87 1012.9
20260505054019 8 0 0.0 3.2 0.03 0.36 0.36 86 1012.8
20260505053518 8 0 0.0 3.2 0.03 0.36 0.36 86 1012.5
20260505053059 8 0 0.0 3.2 0.03 0.36 0.36 86 1012.6
20260505052517 8 0 0.0 3.2 0.03 0.36 0.36 86 1012.5
20260505052018 8 173 0.0 1.6 0.03 0.36 0.36 86 1012.5
20260505051534 8 0 0.0 3.2 0.03 0.36 0.36 86 1012.6
20260505051019 8 0 0.0 3.2 0.05 0.36 0.36 86 1012.9
20260505050517 8 0 0.0 1.6 0.08 0.36 0.36 86 1013.0
20260505041540 8 203 1.6 8.0 0.28 0.33 0.33 84 1013.2
20260505041017 8 163 1.6 8.0 0.28 0.30 0.30 83 1013.2
20260505040517 8 211 0.0 6.4 0.28 0.28 0.28 83 1013.2
20260505040038 8 211 1.6 11.3 0.25 0.25 0.25 82 1013.2
20260505035517 8 0 3.2 11.3 0.23 0.23 0.23 82 1013.0
20260505035018 8 188 4.8 11.3 0.23 0.23 0.23 81 1013.1
20260505034534 8 201 3.2 9.7 0.20 0.20 0.20 81 1013.1
20260505034018 9 201 3.2 14.5 0.20 0.20 0.20 80 1013.1
20260505033523 9 183 4.8 14.5 0.18 0.18 0.18 79 1013.2
20260505033042 10 215 1.6 14.5 0.15 0.15 0.15 78 1013.3
20260505032518 10 218 3.2 9.7 0.13 0.13 0.13 76 1013.2
20260505032016 10 223 3.2 9.7 0.10 0.10 0.10 73 1013.2
20260505031535 10 227 3.2 9.7 0.05 0.05 0.05 70 1013.0
20260505031019 11 201 3.2 11.3 0.00 0.00 0.00 67 1012.9
20260505030518 11 196 4.8 11.3 0.00 0.00 0.00 65 1012.8
20260505030035 11 200 3.2 11.3 0.00 0.00 0.00 65 1012.5
20260505025520 11 0 1.6 6.4 0.00 0.00 0.00 64 1012.3
20260505025018 11 265 0.0 4.8 0.00 0.00 0.00 64 1012.0
20260505024533 11 0 1.6 6.4 0.00 0.00 0.00 64 1011.8
20260505024021 11 0 1.6 6.4 0.00 0.00 0.00 63 1011.8
20260505023517 11 0 1.6 11.3 0.00 0.00 0.00 63 1011.6
20260505023031 12 221 1.6 11.3 0.00 0.00 0.00 62 1011.6
20260505022517 12 183 3.2 11.3 0.00 0.00 0.00 61 1011.5
20260505022016 12 263 3.2 11.3 0.00 0.00 0.00 59 1011.3
20260505021536 12 248 3.2 12.9 0.00 0.00 0.00 58 1011.4
20260505021018 13 282 4.8 12.9 0.00 0.00 0.00 55 1011.4
20260505020517 13 199 1.6 12.9 0.00 0.00 0.00 52 1011.4
20260505020036 13 0 0.0 4.8 0.00 0.00 0.00 52 1011.4
20260505015518 13 0 0.0 4.8 0.00 0.00 0.00 51 1011.4
20260505015018 13 0 0.0 4.8 0.00 0.00 0.00 51 1011.5
20260505014536 13 266 0.0 4.8 0.00 0.00 0.00 50 1011.3
20260505014017 13 258 0.0 4.8 0.00 0.00 0.00 50 1011.2
20260505013518 13 0 0.0 1.6 0.00 0.00 0.00 52 1010.9
20260505013032 13 0 0.0 1.6 0.00 0.00 0.00 52 1011.0
20260505012517 13 0 0.0 1.6 0.00 0.00 0.00 52 1011.2
20260505012018 13 0 0.0 3.2 0.00 0.00 0.00 51 1011.2
20260505011553 13 0 0.0 3.2 0.00 0.00 0.00 51 1010.9
20260505011019 13 0 0.0 3.2 0.00 0.00 0.00 50 1011.0
20260505010521 14 0 0.0 3.2 0.00 0.00 0.00 51 1011.1
20260505010033 14 0 0.0 1.6 0.00 0.00 0.00 50 1011.0
20260505005520 14 0 0.0 6.4 0.00 0.00 0.00 50 1011.0
20260505005017 14 0 0.0 6.4 0.00 0.00 0.00 50 1011.1
20260505004536 14 81 3.2 14.5 0.00 0.00 0.00 49 1011.0
20260505004017 15 30 1.6 16.1 0.00 0.00 0.00 48 1011.3
20260505003518 15 141 3.2 16.1 0.00 0.00 0.00 44 1011.3
20260505003034 15 171 1.6 11.3 0.00 0.00 0.00 40 1011.2
20260505002518 15 202 3.2 9.7 0.00 0.00 0.00 40 1011.1
20260505002019 15 0 1.6 6.4 0.00 0.00 0.00 40 1011.1
20260505001532 15 265 1.6 8.0 0.00 0.00 0.00 39 1010.9
20260505001017 15 227 1.6 9.7 0.00 0.00 0.00 39 1010.9
20260505000519 15 265 4.8 9.7 0.00 0.00 0.00 38 1010.7
20260505000110 16 189 1.6 11.3 0.00 0.00 0.00 38 1010.5
20260504235518 16 232 0.0 11.3 0.00 0.00 0.00 38 1010.4
20260504235018 16 173 4.8 11.3 0.00 0.00 0.00 38 1010.3
20260504234533 16 230 3.2 9.7 0.00 0.00 0.00 37 1010.0
20260504234017 16 215 3.2 17.7 0.00 0.00 0.00 36 1010.0
20260504233521 16 235 3.2 17.7 0.00 0.00 0.00 35 1009.9
20260504233045 16 259 4.8 14.5 0.00 0.00 0.00 34 1010.0
20260504232518 17 0 3.2 12.9 0.00 0.00 0.00 34 1009.9
20260504232017 17 246 4.8 17.7 0.00 0.00 0.00 34 1009.7
20260504231536 17 299 4.8 17.7 0.00 0.00 0.00 34 1009.8
20260504231018 17 222 4.8 22.5 0.00 0.00 0.00 33 1009.8
20260504230519 17 313 6.4 22.5 0.00 0.00 0.00 33 1009.7
20260504230035 17 286 4.8 16.1 0.00 0.00 0.00 34 1009.7
20260504225519 17 238 4.8 17.7 0.00 0.00 0.00 34 1009.7
20260504225019 17 264 4.8 17.7 0.00 0.00 0.00 34 1009.6
20260504224538 17 194 6.4 17.7 0.00 0.00 0.00 34 1009.7
20260504224018 17 200 4.8 17.7 0.00 0.00 0.00 34 1009.8
20260504223518 17 250 6.4 17.7 0.00 0.00 0.00 33 1009.8
20260504223034 17 232 4.8 14.5 0.00 0.00 0.00 33 1009.7
20260504222518 17 207 4.8 12.9 0.00 0.00 0.00 33 1009.6
20260504222021 17 234 3.2 16.1 0.00 0.00 0.00 31 1009.7
20260504221532 17 273 3.2 16.1 0.00 0.00 0.00 30 1009.6
20260504221018 17 243 6.4 16.1 0.00 0.00 0.00 30 1009.5
20260504220518 17 241 6.4 17.7 0.00 0.00 0.00 30 1009.4